Location: Anumalkud?ru
(16.4847°N, 80.6636°E)
Time: 09:21:10
(UTC+00:00)

ARGOS - Pass Details

Date: 11 April 2026
Orbit: 818 x 833 km, 98.5° (Epoch: 12 May)

Event Time Altitude Azimuth Distance (km) Brightness Sun altitude
Rises 22:03:11 0° 11° (N) 3,355 6.7 -33.5°
Reaches altitude 10° 22:05:32 10° 11° (N) 2,419 5.9 -32.9°
Enters shadow 22:08:33 35° 10° (N) 1,297 4.3 -32.3°
